TimeCST,TemperatureF,Dew PointF,Humidity,Sea Level PressureIn,VisibilityMPH,Wind Direction,Wind SpeedMPH,Gust SpeedMPH,PrecipitationIn,Events,Conditions,WindDirDegrees,DateUTC
12:10 AM,32.0,26.6,80,30.06,10.0,SSW,10.4,18.4,N/A,,Overcast,200,2011-12-03 06:10:00
12:30 AM,32.0,26.6,80,30.06,10.0,SSW,9.2,19.6,N/A,,Overcast,210,2011-12-03 06:30:00
12:50 AM,32.0,26.6,80,30.05,10.0,SSW,10.4,16.1,N/A,,Overcast,200,2011-12-03 06:50:00
1:10 AM,30.2,26.6,86,30.04,10.0,SSW,8.1,18.4,N/A,,Overcast,200,2011-12-03 07:10:00
1:29 AM,30.2,26.6,86,30.05,10.0,SSW,4.6,18.4,N/A,,Mostly Cloudy,210,2011-12-03 07:29:00
1:50 AM,30.2,26.6,86,30.04,10.0,SSW,8.1,-,N/A,,Mostly Cloudy,200,2011-12-03 07:50:00
2:10 AM,30.2,26.6,86,30.04,10.0,SSW,8.1,-,N/A,,Scattered Clouds,200,2011-12-03 08:10:00
2:29 AM,30.2,26.6,86,30.04,10.0,SSW,3.5,-,N/A,,Scattered Clouds,210,2011-12-03 08:29:00
2:50 AM,28.4,26.6,93,30.04,10.0,South,5.8,-,N/A,,Clear,190,2011-12-03 08:50:00
3:10 AM,28.4,26.6,93,30.04,7.0,SSW,6.9,-,N/A,,Clear,200,2011-12-03 09:10:00
3:29 AM,28.4,26.6,93,30.04,7.0,SSW,8.1,-,N/A,,Clear,200,2011-12-03 09:29:00
3:50 AM,28.4,26.6,93,30.04,7.0,SSW,6.9,-,N/A,,Clear,200,2011-12-03 09:50:00
4:08 AM,28.4,26.6,93,30.04,7.0,SSW,4.6,-,N/A,,Clear,200,2011-12-03 10:08:00
4:29 AM,28.4,26.6,93,30.04,7.0,SSW,3.5,-,N/A,,Clear,210,2011-12-03 10:29:00
4:50 AM,28.4,26.6,93,30.04,7.0,SSW,4.6,-,N/A,,Clear,200,2011-12-03 10:50:00
5:10 AM,28.4,26.6,93,30.04,7.0,Calm,Calm,-,N/A,,Clear,0,2011-12-03 11:10:00
5:29 AM,28.4,26.6,93,30.04,7.0,North,-9999.0,-,N/A,,Clear,0,2011-12-03 11:29:00
5:50 AM,28.4,26.6,93,30.04,7.0,Calm,Calm,-,N/A,,Clear,0,2011-12-03 11:50:00
6:10 AM,28.4,26.6,93,30.05,7.0,Calm,Calm,-,N/A,,Clear,0,2011-12-03 12:10:00
6:29 AM,28.4,26.6,93,30.04,7.0,WSW,3.5,-,N/A,,Clear,250,2011-12-03 12:29:00
6:50 AM,28.4,26.6,93,30.05,7.0,Calm,Calm,-,N/A,,Clear,0,2011-12-03 12:50:00
7:10 AM,28.4,24.8,86,30.05,5.0,Calm,Calm,-,N/A,,Clear,0,2011-12-03 13:10:00
7:29 AM,26.6,24.8,93,30.05,5.0,Calm,Calm,-,N/A,,Clear,0,2011-12-03 13:29:00
7:50 AM,26.6,24.8,93,30.06,5.0,West,3.5,-,N/A,,Clear,270,2011-12-03 13:50:00
8:10 AM,26.6,24.8,93,30.07,5.0,Calm,Calm,-,N/A,,Clear,0,2011-12-03 14:10:00
8:30 AM,28.4,24.8,86,30.08,7.0,WSW,3.5,-,N/A,,Clear,240,2011-12-03 14:30:00
8:48 AM,28.4,24.8,86,30.07,7.0,WSW,3.5,-,N/A,,Clear,240,2011-12-03 14:48:00
9:10 AM,28.4,24.8,86,30.06,7.0,WSW,3.5,-,N/A,,Clear,240,2011-12-03 15:10:00
9:30 AM,28.4,24.8,86,30.07,7.0,Calm,Calm,-,N/A,,Clear,0,2011-12-03 15:30:00
9:50 AM,28.4,24.8,86,30.07,7.0,SSW,5.8,-,N/A,,Clear,200,2011-12-03 15:50:00
10:09 AM,28.4,24.8,86,30.08,10.0,SW,3.5,-,N/A,,Clear,230,2011-12-03 16:09:00
10:30 AM,30.2,24.8,80,30.07,10.0,Calm,Calm,-,N/A,,Clear,0,2011-12-03 16:30:00
10:50 AM,30.2,24.8,80,30.05,10.0,Calm,Calm,-,N/A,,Clear,0,2011-12-03 16:50:00
11:10 AM,30.2,24.8,80,30.05,10.0,Calm,Calm,-,N/A,,Clear,0,2011-12-03 17:10:00
11:30 AM,30.2,24.8,80,30.06,10.0,Calm,Calm,-,N/A,,Clear,0,2011-12-03 17:30:00
11:50 AM,30.2,24.8,80,30.05,10.0,West,3.5,-,N/A,,Clear,260,2011-12-03 17:50:00
12:10 PM,30.2,24.8,80,30.03,10.0,WNW,3.5,-,N/A,,Scattered Clouds,290,2011-12-03 18:10:00
12:30 PM,30.2,24.8,80,30.01,10.0,Calm,Calm,-,N/A,,Clear,0,2011-12-03 18:30:00
12:50 PM,30.2,24.8,80,30.00,10.0,Calm,Calm,-,N/A,,Unknown,0,2011-12-03 18:50:00
1:10 PM,30.2,24.8,80,30.00,10.0,Calm,Calm,-,N/A,,Unknown,0,2011-12-03 19:10:00
1:30 PM,30.2,24.8,80,30.00,10.0,Calm,Calm,-,N/A,,Scattered Clouds,0,2011-12-03 19:30:00
2:09 PM,30.2,24.8,80,29.98,10.0,Calm,Calm,-,N/A,,Unknown,0,2011-12-03 20:09:00
2:30 PM,30.2,24.8,80,29.99,10.0,Calm,Calm,-,N/A,,Unknown,0,2011-12-03 20:30:00
2:50 PM,28.4,26.6,93,29.99,0.8,Calm,Calm,-,N/A,Snow,Light Snow,0,2011-12-03 20:50:00
3:09 PM,28.4,26.6,93,30.00,1.0,Calm,Calm,-,0.01,Snow,Light Snow,0,2011-12-03 21:09:00
3:30 PM,28.4,26.6,93,30.00,1.0,Calm,Calm,-,0.01,Snow,Light Snow,0,2011-12-03 21:30:00
3:50 PM,28.4,26.6,93,30.00,0.8,Calm,Calm,-,0.02,Snow,Snow,0,2011-12-03 21:50:00
3:55 PM,28.4,26.6,93,29.99,0.8,Calm,Calm,-,0.03,Snow,Snow,0,2011-12-03 21:55:00
4:09 PM,28.4,26.6,93,29.99,0.8,WNW,4.6,-,0.01,Snow,Snow,290,2011-12-03 22:09:00
4:30 PM,28.4,26.6,93,29.99,0.8,WNW,3.5,-,0.02,Snow,Light Snow,300,2011-12-03 22:30:00
4:50 PM,26.6,26.6,100,29.99,0.5,WNW,4.6,-,0.04,Snow,Snow,290,2011-12-03 22:50:00
4:55 PM,26.6,26.6,100,29.99,0.5,WNW,3.5,-,0.04,Snow,Snow,300,2011-12-03 22:55:00
5:10 PM,26.6,26.6,100,29.98,1.2,NW,4.6,-,0.01,Snow,Snow,310,2011-12-03 23:10:00
5:30 PM,26.6,26.6,100,29.98,1.2,NW,3.5,-,0.02,Snow,Snow,310,2011-12-03 23:30:00
5:49 PM,26.6,26.6,100,29.98,1.5,NW,5.8,-,0.03,Snow,Light Snow,310,2011-12-03 23:49:00
5:55 PM,26.6,26.6,100,29.97,2.0,NW,5.8,-,0.03,Snow,Light Snow,320,2011-12-03 23:55:00
6:10 PM,26.6,26.6,100,29.97,3.0,NW,6.9,-,N/A,Snow,Light Snow,320,2011-12-04 00:10:00
6:30 PM,28.4,26.6,93,29.96,3.0,NW,5.8,-,N/A,Snow,Light Snow,320,2011-12-04 00:30:00
6:50 PM,28.4,26.6,93,29.97,2.5,NW,6.9,-,N/A,Snow,Light Snow,320,2011-12-04 00:50:00
7:10 PM,28.4,26.6,93,29.97,3.0,NNW,6.9,-,N/A,Snow,Light Snow,330,2011-12-04 01:10:00
7:30 PM,28.4,26.6,93,29.97,3.0,NNW,6.9,-,N/A,Snow,Light Snow,330,2011-12-04 01:30:00
7:50 PM,28.4,26.6,93,29.96,4.0,NNW,6.9,-,N/A,Snow,Light Snow,330,2011-12-04 01:50:00
8:10 PM,28.4,26.6,93,29.96,4.0,NNW,6.9,-,N/A,Snow,Light Snow,330,2011-12-04 02:10:00
8:29 PM,28.4,26.6,93,29.96,2.5,NW,5.8,-,N/A,Snow,Light Snow,320,2011-12-04 02:29:00
8:50 PM,28.4,26.6,93,29.96,2.5,NW,6.9,-,N/A,Snow,Light Snow,310,2011-12-04 02:50:00
9:10 PM,28.4,26.6,93,29.95,2.5,NW,6.9,-,N/A,Snow,Light Snow,310,2011-12-04 03:10:00
9:30 PM,28.4,26.6,93,29.95,3.0,NW,6.9,-,N/A,Snow,Light Snow,320,2011-12-04 03:30:00
9:50 PM,28.4,26.6,93,29.94,2.0,NW,5.8,-,N/A,Snow,Light Snow,320,2011-12-04 03:50:00
10:10 PM,28.4,28.4,100,29.93,2.0,NW,4.6,-,N/A,Snow,Light Snow,320,2011-12-04 04:10:00
10:29 PM,28.4,28.4,100,29.93,2.5,NW,5.8,-,N/A,Snow,Light Snow,320,2011-12-04 04:29:00
10:50 PM,28.4,26.6,93,29.93,2.5,NW,5.8,-,N/A,Snow,Light Snow,310,2011-12-04 04:50:00
11:09 PM,28.4,26.6,93,29.93,2.5,NW,8.1,-,N/A,Snow,Light Snow,320,2011-12-04 05:09:00
11:30 PM,28.4,26.6,93,29.93,2.0,NW,8.1,-,N/A,Snow,Light Snow,320,2011-12-04 05:30:00
11:50 PM,28.4,26.6,93,29.94,2.5,NW,6.9,-,N/A,Snow,Light Snow,310,2011-12-04 05:50:00